Regional Weather Roundup
Issued by NWS

Home | Current Version | Previous Version | Graphics & Text | Print | Product List | Glossary On
Versions: 1 2 3 4 5 6 7 8 9 10 11 12 13 14 15 16 17 18 19 20 21 22 23 24 25 26 27 28 29 30 31 32 33 34 35 36 37 38 39 40 41 42 43 44 45 46 47 48 49 50
193
ASUS43 KBIS 241602
RWRND

NORTH DAKOTA REGIONAL WEATHER ROUNDUP
NATIONAL WEATHER SERVICE BISMARCK ND
1100 AM CDT SAT SEP 24 2016

NOTE: "FAIR" INDICATES FEW OR NO CLOUDS BELOW 12,000 FEET WITH NO
SIGNIFICANT WEATHER AND/OR OBSTRUCTIONS TO VISIBILITY.


NDZ001>003-009>011-017-241700-
NORTHWEST NORTH DAKOTA

CITY           SKY/WX    TMP DP  RH WIND       PRES   REMARKS
WILLISTON      CLOUDY    57  55  93 N13       29.76R
MINOT          LGT RAIN  65  64  97 E12       29.75R FOG
MINOT AFB      CLOUDY    63  63  99 SE10      29.74S FOG
$$

NDZ018>021-031>035-040>046-241700-
SOUTHWEST NORTH DAKOTA

CITY           SKY/WX    TMP DP  RH WIND       PRES   REMARKS
BISMARCK       CLOUDY    70  64  81 SE13      29.74S
DICKINSON      FOG       58  58 100 NE8       29.69F VSB<1/4
GARRISON         N/A     68  67  96 SE8       29.73F
HETTINGER ARPT CLOUDY    62  60  93 S17G24    29.72R
$$

NDZ004>008-012>016-024-026-027-054-241700-
NORTHEAST NORTH DAKOTA

CITY           SKY/WX    TMP DP  RH WIND       PRES   REMARKS
GRAND FORKS    CLOUDY    68  64  87 SE15      29.86S
GRND FRKS AFB  CLOUDY    67  65  95 S12       29.86S
DEVILS LAKE    CLOUDY    67  65  93 SE13      29.81F FOG
$$

NDZ022-023-025-028>030-036>039-047>053-241700-
SOUTHEAST NORTH DAKOTA

CITY           SKY/WX    TMP DP  RH WIND       PRES   REMARKS
FARGO          PTSUNNY   74  65  73 SE22G29   29.87F
JAMESTOWN      MOSUNNY   73  66  78 S17G26    29.80F
$$





USA.gov is the U.S. government's official web portal to all federal, state and local government web resources and services.